Location: Layer Marney
(51.8167°N, 0.8000°E)
Time: 14:44:10
(UTC+00:00)

Daily predictions for brighter satellites

Satellite Brightness Start Highest point End
(mag) Time Altitude Azimuth Time Altitude Azimuth Time Altitude Azimuth
Cosmos 2237 Rocket 3.6 16:47:31 10° WSW 16:52:32 32° NW 16:57:35 10° NNE
MOS 1 Rocket 3.7 16:48:41 10° SE 16:53:42 50° ENE 16:58:31 10° N
Cosmos 2333 Rocket 4.3 16:52:15 10° NNW 16:54:10 12° N 16:56:05 10° NNE
CORIOLIS 4.2 16:50:14 10° SSE 16:55:36 71° ENE 17:01:01 10° NNW
SMAP 3.1 16:51:19 10° SSE 16:55:54 64° ENE 17:00:32 10° N
SL-16 R/B 2.5 16:51:44 10° SW 16:57:24 73° WNW 17:03:05 10° NNE
NOSS 3-1 (C) 4.4 16:52:14 10° NW 16:57:47 34° NNE 17:04:38 10° E
Cosmos 2322 Rocket 4.3 16:58:43 10° NNW 17:00:21 11° N 17:01:59 10° N
Resurs 01 Rocket 3.4 17:03:46 10° ENE 17:05:35 12° NE 17:07:24 10° NNE
Cosmos 1470 Rocket 3.7 17:02:23 10° N 17:06:36 49° ENE 17:10:49 10° SSE
Cosmos 1420 Rocket 4.2 17:01:42 10° SSW 17:06:55 76° WNW 17:12:09 10° NNE
SJ-12 4.0 17:05:49 10° SE 17:09:29 47° ENE 17:13:11 10° N
Cosmos 1656 4.1 17:05:14 10° NNW 17:10:32 39° NE 17:15:44 10° ESE
Cosmos 1953 2.3 17:08:19 10° N 17:11:57 49° ENE 17:15:32 10° SSE
Cosmos 1933 Rocket 4.3 17:10:39 10° N 17:14:35 30° ENE 17:18:27 10° SE
Cosmos 1821 Rocket 4.2 17:10:06 10° N 17:16:06 47° ENE 17:22:00 10° SE
Meteor 1-16 Rocket 4.2 17:14:06 10° N 17:19:18 51° ENE 17:24:31 10° SSE
Meteor 1-28 Rocket 3.0 17:19:30 10° N 17:22:47 76° WNW 17:26:03 10° SSW
Cosmos 1340 Rocket 3.5 17:20:07 10° N 17:23:27 28° ENE 17:26:48 10° SE
Cosmos 2056 Rocket 3.5 17:19:57 10° SSW 17:25:04 86° WNW 17:30:13 10° NNE
Cosmos 1980 Rocket 3.7 17:22:46 10° NNW 17:26:23 17° NNE 17:28:53 13° ENE
IRS-P3 4.1 17:21:28 10° SSE 17:26:41 62° ENE 17:31:56 10° N
Cosmos 292 Rocket 3.9 17:23:15 10° NNW 17:27:51 49° ENE 17:32:24 10° SE
COSMO-SKYMED 1 3.9 17:27:24 14° ENE 17:29:22 19° E 17:32:18 10° SE
Meteor 1-21 4.4 17:24:17 10° SSE 17:29:40 49° E 17:35:02 10° NNE
ARIANE 5 R/B 2.6 17:26:54 10° SSE 17:32:08 90° NW 17:37:23 10° NNW
Dummy Sat-01 4.4 17:28:57 10° N 17:32:36 79° E 17:36:13 10° S
Cosmos 2181 Rocket 4.1 17:30:01 10° SSE 17:35:57 54° E 17:42:01 10° NNE
USA 238 DEB 4.2 17:29:51 10° NW 17:37:10 75° SW 17:45:09 10° SSE
USA 238 4.2 17:29:57 10° NW 17:37:16 76° SW 17:45:16 10° SSE
Cosmos 1633 Rocket 3.8 17:35:28 10° NNW 17:39:41 55° W 17:43:53 10° S
CARTOSAT-1 4.4 17:37:00 10° ESE 17:40:31 26° ENE 17:44:03 10° N
Cosmos 968 Rocket 3.8 17:35:49 10° NNW 17:40:58 72° WSW 17:46:03 10° SSE
Cosmos 1869 Rocket 4.0 17:37:12 10° N 17:41:20 38° ENE 17:45:25 10° SE
USA 267 3.4 17:35:59 13° E 17:41:56 64° NNE 17:48:24 10° WNW
SL-16 R/B 3.1 17:36:04 10° N 17:42:05 58° WNW 17:48:06 10° SW
DNEPR-1 R/B 4.2 17:39:40 10° S 17:43:43 37° ESE 17:46:01 21° ENE
Cosmos 2219 Rocket 4.4 17:44:28 10° NNW 17:45:44 11° N 17:47:00 10° N
Cosmos 2366 rocket 4.2 17:40:28 10° NNW 17:46:50 78° W 17:53:11 10° S
Cosmos 1697 Rocket 3.4 17:46:08 10° NNW 17:51:15 33° NE 17:54:36 19° E
Meteor 2-13 Rocket 4.5 17:46:00 10° S 17:52:00 58° E 17:58:03 10° NNE
Cosmos 2218 Rocket 4.3 17:46:17 10° NNW 17:52:42 77° W 17:59:04 10° S
SL-24 R/B - RUBIN 2 3.6 17:49:03 10° NW 17:53:26 81° SW 17:57:50 10° SE
Resurs 1-3 3.6 17:50:17 10° SSE 17:54:29 57° ENE 17:58:45 10° N
Cosmos 2360 Rocket 4.3 17:53:58 10° N 17:55:12 11° N 17:56:27 10° NNE
Meteor 1-12 Rocket 4.2 17:50:08 10° NNW 17:55:49 85° ENE 18:01:29 10° SSE
SL-16 R/B 4.1 17:54:02 10° N 17:56:23 12° NNE 17:57:52 11° NNE
Cosmos 1934 Rocket 4.4 17:51:31 10° N 17:57:12 38° ENE 18:02:56 10° SE
Okean 3 3.9 17:53:35 10° SSE 17:57:15 34° E 17:58:57 24° NE
Cosmos 1603 3.7 17:51:45 10° SSW 17:57:21 69° ESE 18:02:06 15° NE
Cosmos 1331 Rocket 3.9 17:54:09 10° SSW 17:59:15 72° ESE 18:03:48 13° NNE
Cosmos 1741 Rocket 4.3 17:55:47 10° NNW 18:01:00 71° WSW 18:06:10 10° SSE
CZ-4 R/B 4.3 17:58:21 10° SSE 18:02:18 85° WSW 18:06:19 10° NNW
Cosmos 1833 Rocket 3.9 17:58:51 10° SSE 18:02:47 20° ESE 18:02:47 20° ESE
CZ-2D R/B 4.3 18:00:56 10° SSW 18:03:52 37° W 18:06:49 10° NNW
USA 59 Rocket -0.2 18:01:21 10° NW 18:04:27 44° NE 18:05:27 34° E
COSMOS 2455 3.4 17:59:07 10° NNW 18:04:43 37° NE 18:07:25 25° E
Cosmos 2239 Rocket 4.4 18:02:11 10° N 18:08:28 69° ENE 18:14:41 10° SSE
NOAA 15 4.5 18:03:15 10° SSE 18:08:29 83° ENE 18:13:45 10° NNW
NOSS 2-1 (E) 3.6 18:05:34 10° NNW 18:08:34 36° NE 18:08:49 35° NE
PSLV R/B 3.4 18:05:13 10° SSE 18:09:17 57° ENE 18:13:23 10° N
NOSS 2-1 (C) 3.4 18:07:23 10° NW 18:10:26 41° NE 18:10:49 40° ENE
Okean 2 3.1 18:06:39 10° S 18:10:27 67° E 18:13:11 18° NNE
Cosmos 1302 Rocket 4.4 18:05:48 10° S 18:10:44 43° ESE 18:13:11 26° NE
Cosmos 1703 3.5 18:07:35 10° SSW 18:10:50 55° WNW 18:14:06 10° N
SKYMED 2 3.4 18:08:28 10° NNE 18:12:50 74° ESE 18:17:10 10° S
SPOT 1/Viking Rocket 3.9 18:10:24 10° S 18:15:32 67° WSW 18:20:40 10° NNW
ATLAS 5 CENTAUR R/B 2.0 18:14:42 10° W 18:17:32 34° NNW 18:18:39 26° N
Cosmos 1110 Rocket 4.0 18:12:24 10° SSW 18:17:37 80° WNW 18:22:02 15° NNE
Cosmos 1943 4.0 18:13:12 10° SW 18:18:40 50° NW 18:23:47 12° NNE
NOSS 3-4 (A) 3.1 18:15:01 10° SW 18:20:21 86° SE 18:23:42 27° NE
NOSS 3-4 (C) 3.1 18:15:09 10° SW 18:20:30 85° SE 18:23:52 27° NE
Nadezhda 3 Rocket 3.9 18:14:33 10° S 18:20:34 61° E 18:26:39 10° NNE
RESURS DK-1 2.4 18:17:17 10° SSW 18:21:10 52° ESE 18:21:45 47° E
YAOGAN 1 2.6 18:19:15 10° S 18:23:31 79° WSW 18:27:48 10° NNW
Cosmos 1515 Rocket 4.2 18:21:05 10° SSW 18:25:26 58° WNW 18:29:50 10° N
ATLAS 3B R/B 4.0 18:19:26 10° WNW 18:26:32 35° N 18:30:46 21° NE
USA 276 3.3 18:25:23 10° SW 18:26:52 27° SSW 18:26:52 27° SSW
NOAA 6 3.9 18:23:34 10° SSE 18:28:40 79° ENE 18:33:49 10° NNW
ISS -3.5 18:25:33 10° WSW 18:28:48 53° SSE 18:28:48 53° SSE
Cosmos 1452 Rocket 3.5 18:25:23 10° SSW 18:30:38 85° WNW 18:34:20 20° NNE
Cosmos 2360 4.3 18:28:16 10° NNW 18:34:00 77° WSW 18:39:41 10° SSE
NOSS 3-1 (A) 4.2 18:28:22 10° NW 18:34:28 44° NNE 18:37:03 34° ENE
Cosmos 2237 Rocket 4.5 18:35:54 10° NW 18:38:28 13° NNW 18:41:04 10° N
Cosmos 1992 Rocket 4.4 18:34:03 10° S 18:38:30 41° ESE 18:38:30 41° ESE
CZ-2D R/B 4.1 18:36:25 10° S 18:40:10 51° W 18:43:54 10° NNW
Cosmos 2333 Rocket 4.0 18:37:47 10° NNW 18:40:57 16° NNE 18:40:57 16° NNE
Resurs 01 Rocket 1.4 18:36:51 10° SSE 18:41:11 74° ENE 18:45:34 10° N
NOSS 2-1 (D) 3.1 18:39:10 10° NW 18:42:05 70° NNW 18:42:05 70° NNW
SL-16 R/B 4.2 18:38:13 10° W 18:42:30 21° NW 18:46:44 10° NNE
Radarsat Rocket 4.2 18:36:38 10° SSE 18:42:49 72° WSW 18:48:40 10° NNW
Cosmos 2322 Rocket 4.2 18:44:16 10° N 18:46:50 14° NNE 18:46:50 14° NNE
BREEZE-M DEB (TANK) 3.5 18:45:38 10° SW 18:48:28 49° SSE 18:48:38 49° SE
Cosmos 967 Rocket 4.5 18:42:15 10° NW 18:48:48 86° SW 18:53:08 22° SE
USA 215 3.6 18:47:35 39° ESE 18:48:59 43° SE 18:55:10 10° SSW
NOSS 3-1 (C) 3.8 18:42:55 10° NW 18:49:34 72° NE 18:53:19 35° ESE
Cosmos 1733 Rocket 3.1 18:47:19 10° N 18:51:06 61° NNE 18:51:06 61° NNE
IRAS Rocket 4.4 18:53:26 10° SSE 18:58:56 74° WSW 19:04:31 10° NNW
Meteor 2-19 Rocket 4.4 18:54:25 10° S 19:00:25 60° E 19:01:50 48° NE
COSMO-SKYMED 1 3.1 19:03:42 37° NNW 19:04:59 54° WNW 19:09:00 10° SSW
Cosmos 1605 Rocket 3.9 19:01:56 10° N 19:08:22 69° ENE 19:10:33 42° SE
Cosmos 1980 Rocket 2.6 19:06:13 10° NNW 19:10:39 46° NNE 19:10:39 46° NNE
USA 267 3.3 19:23:20 54° SE 19:24:55 75° SSW 19:31:30 10° WNW
CSL-04 Rocket 4.4 19:29:14 42° N 19:29:14 42° N 19:32:43 10° NNW
Cosmos 2219 Rocket 4.4 19:29:14 10° N 19:30:39 13° N 19:30:39 13° N
Cosmos 1697 Rocket 3.1 19:29:58 10° NW 19:35:33 60° WSW 19:36:23 54° SSW
Cosmos 2360 Rocket 4.3 19:37:33 10° NNW 19:39:06 15° N 19:39:06 15° N
SL-16 R/B 4.0 19:37:36 10° NNW 19:39:42 20° N 19:39:42 20° N
Cosmos 1833 Rocket 3.3 19:40:29 10° SSW 19:44:31 49° SW 19:44:31 49° SW
COSMOS 2455 3.1 19:45:03 10° NW 19:50:35 64° W 19:50:35 64° W
USA 59 Rocket 2.5 19:50:04 10° WNW 19:51:08 17° W 19:51:08 17° W
BREEZE-M DEB (TANK) 4.1 20:01:21 10° W 20:05:44 77° SSW 20:05:44 77° SSW
BREEZE-M DEB (TANK) 4.4 20:04:15 10° W 20:06:43 37° W 20:06:43 37° W
Resurs 01 Rocket 4.4 20:15:30 10° SW 20:18:05 15° W 20:20:42 10° NW
ATLAS 3B R/B 3.8 20:11:50 10° NW 20:18:00 39° N 20:18:00 39° N
NOSS 3-1 (A) 4.2 20:19:00 10° NW 20:24:27 61° WNW 20:24:27 61° WNW
Cosmos 2333 Rocket 4.4 20:21:38 10° NNW 20:22:58 17° NNW 20:22:58 17° NNW
USA 215 4.2 20:34:56 41° WSW 20:34:56 41° WSW 20:38:57 10° WSW
Cosmos 1980 Rocket 4.4 20:50:32 10° NW 20:52:26 20° WNW 20:52:26 20° WNW
